Temp
-11 -11 -11 -11 -11 -11 -11 -11 -11 -11 -11 -11 -11 -11 -12 -12 -12 -12 -12 -12 -12 -12 -12 -12 -11 -11 -11 -11 -11 -11 -11 -11 -11 -10 -10 -10 -9 -9 -9 -9 -9 -8 -8 -8 -7 -7 -8 -8 -8 -8 -8 -8 -8 -7 -7 -7 -7 -7 -6 -6 -6 -6 -6 -6 -6 -5 -5 -5 -5
-11 -11 -11 -11 -11 -12 -12 -12 -12 -12 -11 -11 -11 -12 -12 -12 -12 -12 -12 -12 -12 -12 -12 -12 -12 -12 -12 -11 -11 -11 -11 -11 -11 -11 -10 -10 -10 -9 -9 -9 -9 -8 -8 -8 -8 -8 -8 -8 -8 -8 -8 -8 -8 -7 -7 -7 -7 -7 -6 -6 -6 -6 -6 -6 -6 -6 -5 -5 -5
-11 -11 -11 -12 -12 -12 -12 -12 -11 -11 -11 -11 -11 -12 -12 -13 -13 -12 -12 -12 -12 -12 -12 -12 -12 -12 -12 -12 -12 -11 -11 -11 -11 -11 -11 -10 -10 -10 -9 -9 -9 -8 -8 -8 -8 -8 -8 -8 -8 -8 -8 -8 -8 -7 -7 -7 -7 -7 -7 -7 -7 -6 -6 -6 -6 -6 -6 -5 -5
-11 -12 -12 -12 -12 -12 -12 -11 -11 -11 -11 -11 -12 -12 -12 -13 -13 -13 -13 -13 -13 -12 -12 -12 -12 -12 -12 -12 -12 -12 -12 -11 -11 -11 -11 -11 -10 -10 -9 -9 -9 -8 -8 -8 -8 -8 -8 -8 -8 -8 -8 -8 -8 -7 -7 -7 -7 -7 -7 -7 -7 -6 -6 -6 -6 -6 -6 -5 -5
-12 -12 -12 -12 -12 -12 -12 -11 -11 -11 -12 -12 -12 -13 -13 -13 -13 -13 -13 -13 -13 -13 -12 -12 -12 -12 -12 -12 -12 -12 -12 -12 -11 -11 -11 -11 -10 -10 -9 -9 -9 -9 -9 -9 -9 -8 -8 -8 -8 -8 -8 -8 -8 -7 -7 -7 -7 -7 -7 -7 -7 -6 -6 -6 -6 -6 -6 -6 -5
-12 -12 -12 -12 -12 -12 -11 -11 -11 -12 -12 -12 -13 -13 -13 -13 -13 -13 -13 -13 -13 -13 -13 -12 -12 -12 -12 -12 -12 -12 -12 -12 -12 -12 -11 -11 -11 -10 -10 -9 -9 -9 -9 -9 -9 -9 -8 -8 -8 -8 -8 -8 -8 -8 -8 -7 -7 -7 -7 -7 -7 -7 -6 -6 -6 -6 -6 -6 -5
-12 -12 -12 -12 -12 -11 -11 -11 -11 -12 -12 -13 -13 -13 -13 -13 -13 -13 -13 -13 -13 -13 -13 -13 -13 -13 -13 -13 -13 -12 -12 -12 -12 -12 -12 -11 -11 -10 -10 -10 -10 -10 -10 -9 -9 -9 -8 -8 -8 -8 -8 -8 -8 -8 -8 -7 -7 -7 -7 -7 -6 -6 -6 -6 -6 -6 -6 -6 -5
-12 -12 -12 -12 -12 -11 -11 -11 -11 -12 -12 -13 -13 -13 -13 -13 -13 -13 -13 -13 -13 -13 -13 -13 -13 -13 -13 -13 -13 -13 -12 -12 -12 -12 -12 -11 -11 -11 -11 -10 -10 -10 -10 -10 -9 -9 -8 -8 -8 -8 -8 -8 -8 -8 -8 -7 -7 -7 -7 -7 -7 -7 -6 -6 -6 -6 -6 -6 -6
-12 -12 -12 -12 -11 -11 -11 -11 -12 -12 -13 -13 -13 -13 -13 -13 -13 -13 -13 -13 -13 -13 -13 -13 -13 -13 -13 -13 -13 -13 -13 -12 -12 -12 -12 -12 -11 -11 -11 -11 -10 -10 -10 -10 -9 -9 -8 -8 -8 -8 -8 -8 -8 -8 -8 -7 -7 -7 -7 -7 -7 -7 -7 -7 -6 -6 -6 -6 -6
-12 -12 -12 -12 -11 -11 -11 -11 -12 -12 -13 -13 -13 -13 -13 -13 -13 -13 -13 -13 -13 -13 -13 -13 -13 -13 -13 -13 -13 -13 -13 -12 -12 -12 -12 -12 -12 -11 -11 -11 -11 -10 -10 -10 -9 -9 -8 -8 -8 -8 -8 -8 -8 -8 -8 -7 -7 -7 -7 -7 -7 -7 -7 -7 -6 -6 -6 -6 -6
-12 -12 -12 -12 -11 -11 -11 -11 -12 -12 -13 -13 -13 -13 -13 -13 -13 -13 -13 -13 -13 -13 -13 -13 -13 -13 -13 -13 -13 -13 -13 -12 -12 -12 -12 -12 -12 -11 -11 -11 -11 -11 -10 -10 -9 -9 -8 -8 -8 -8 -8 -8 -8 -8 -8 -7 -7 -7 -7 -7 -7 -7 -7 -7 -6 -6 -6 -6 -6
-12 -12 -12 -11 -11 -11 -11 -11 -12 -12 -13 -14 -14 -14 -13 -13 -13 -13 -13 -13 -13 -13 -13 -13 -13 -13 -13 -13 -13 -13 -13 -13 -12 -12 -12 -12 -12 -11 -11 -11 -11 -11 -10 -10 -9 -9 -8 -8 -8 -8 -8 -8 -8 -8 -8 -7 -7 -7 -7 -7 -7 -7 -7 -7 -6 -6 -6 -6 -6
-12 -12 -11 -11 -11 -11 -11 -11 -12 -12 -13 -14 -14 -14 -13 -13 -13 -13 -13 -13 -13 -13 -13 -13 -13 -13 -13 -13 -13 -13 -13 -13 -12 -12 -12 -12 -12 -11 -11 -11 -11 -11 -10 -10 -9 -9 -9 -9 -8 -8 -8 -8 -8 -8 -8 -7 -7 -7 -7 -7 -7 -7 -7 -7 -6 -6 -6 -6 -6
-11 -11 -11 -11 -11 -11 -11 -12 -12 -13 -13 -13 -14 -13 -13 -13 -13 -13 -13 -13 -13 -13 -13 -13 -13 -13 -13 -13 -13 -13 -13 -13 -12 -12 -12 -12 -12 -11 -11 -11 -11 -11 -10 -9 -9 -9 -9 -9 -9 -8 -8 -8 -8 -8 -7 -7 -7 -7 -7 -7 -7 -7 -7 -6 -6 -6 -6 -6 -6
-11 -11 -11 -11 -11 -11 -11 -12 -12 -13 -13 -13 -13 -13 -13 -13 -13 -13 -13 -13 -13 -13 -13 -13 -13 -13 -13 -13 -13 -13 -13 -13 -12 -12 -12 -12 -12 -12 -12 -11 -11 -11 -10 -9 -9 -9 -9 -9 -9 -8 -8 -8 -8 -8 -7 -7 -7 -7 -7 -7 -7 -7 -7 -6 -6 -6 -6 -6 -6
-11 -11 -11 -10 -11 -11 -11 -12 -12 -13 -13 -13 -13 -13 -13 -13 -13 -13 -13 -13 -13 -13 -13 -13 -13 -13 -13 -13 -13 -13 -13 -13 -13 -12 -12 -12 -12 -12 -12 -12 -11 -11 -10 -9 -9 -9 -9 -8 -8 -8 -9 -8 -8 -7 -7 -7 -7 -7 -7 -7 -7 -7 -7 -7 -6 -6 -6 -6 -6
-11 -11 -11 -11 -11 -11 -11 -12 -12 -13 -13 -13 -13 -13 -13 -13 -13 -13 -13 -13 -13 -13 -13 -13 -13 -13 -13 -13 -13 -13 -13 -13 -13 -13 -12 -12 -12 -12 -12 -12 -11 -11 -10 -9 -9 -9 -9 -8 -8 -8 -9 -8 -8 -7 -7 -7 -7 -7 -7 -7 -7 -7 -7 -7 -7 -6 -6 -6 -6
-11 -11 -11 -11 -11 -11 -11 -12 -12 -13 -13 -13 -13 -13 -13 -13 -13 -13 -13 -13 -13 -13 -13 -13 -13 -13 -13 -13 -13 -13 -13 -13 -13 -13 -13 -13 -13 -13 -12 -12 -11 -10 -10 -10 -10 -9 -9 -8 -8 -9 -9 -8 -7 -7 -7 -7 -7 -7 -8 -7 -7 -7 -7 -7 -7 -7 -6 -6 -6
-11 -11 -11 -11 -11 -11 -12 -12 -13 -13 -13 -13 -13 -13 -13 -13 -13 -13 -13 -13 -13 -13 -13 -13 -13 -13 -13 -13 -13 -13 -13 -13 -13 -13 -13 -13 -13 -13 -13 -12 -11 -10 -10 -10 -10 -9 -9 -8 -9 -9 -9 -8 -7 -7 -7 -7 -8 -8 -8 -7 -7 -7 -7 -7 -7 -7 -6 -6 -6
-11 -11 -11 -11 -11 -12 -12 -13 -13 -13 -13 -13 -14 -14 -13 -13 -13 -13 -13 -13 -13 -13 -13 -13 -13 -13 -13 -13 -13 -13 -13 -13 -13 -13 -13 -13 -13 -13 -12 -12 -11 -11 -11 -10 -10 -9 -9 -8 -9 -9 -9 -8 -7 -7 -7 -7 -8 -8 -8 -8 -7 -7 -7 -7 -7 -7 -7 -6 -6
-11 -11 -11 -11 -12 -12 -13 -13 -13 -13 -14 -13 -13 -13 -13 -13 -13 -13 -13 -13 -13 -13 -13 -13 -13 -13 -13 -13 -13 -13 -13 -13 -13 -13 -13 -13 -13 -13 -12 -12 -11 -11 -11 -11 -10 -9 -8 -8 -9 -9 -9 -8 -7 -7 -7 -8 -8 -8 -8 -8 -8 -7 -7 -7 -7 -7 -7 -7 -6
-11 -11 -11 -12 -12 -13 -13 -13 -13 -13 -13 -13 -13 -13 -13 -13 -13 -13 -13 -13 -13 -13 -14 -13 -13 -13 -13 -13 -13 -13 -13 -13 -13 -13 -13 -13 -13 -13 -12 -12 -12 -12 -11 -11 -10 -9 -8 -9 -9 -9 -9 -8 -7 -7 -7 -8 -8 -8 -8 -8 -8 -8 -7 -7 -7 -7 -7 -7 -7
-12 -12 -12 -12 -13 -13 -13 -13 -14 -13 -13 -13 -13 -13 -13 -13 -13 -13 -13 -13 -13 -13 -14 -13 -13 -13 -13 -13 -13 -13 -13 -13 -13 -13 -13 -13 -13 -13 -12 -12 -12 -12 -12 -11 -10 -9 -9 -9 -9 -9 -8 -7 -7 -7 -7 -8 -8 -8 -8 -8 -8 -8 -8 -7 -7 -7 -7 -7 -7
-12 -12 -12 -13 -13 -13 -14 -14 -14 -13 -13 -13 -13 -13 -13 -13 -13 -14 -14 -13 -13 -13 -13 -13 -13 -13 -13 -13 -13 -13 -13 -13 -13 -13 -13 -13 -13 -13 -12 -12 -12 -12 -12 -11 -10 -9 -9 -10 -9 -9 -8 -7 -7 -7 -8 -8 -8 -8 -8 -8 -8 -8 -8 -7 -7 -7 -8 -8 -8
-12 -12 -12 -13 -13 -14 -14 -14 -14 -13 -13 -13 -13 -13 -13 -13 -14 -14 -14 -14 -13 -13 -13 -14 -13 -13 -13 -13 -13 -13 -13 -13 -13 -13 -13 -13 -13 -13 -13 -12 -12 -12 -11 -10 -9 -9 -10 -10 -9 -8 -7 -7 -7 -8 -8 -8 -8 -8 -8 -8 -8 -8 -8 -7 -7 -7 -8 -8 -8
-12 -12 -13 -13 -13 -14 -14 -14 -14 -14 -13 -13 -13 -13 -13 -14 -14 -14 -14 -13 -13 -13 -13 -13 -13 -13 -13 -13 -13 -13 -13 -13 -13 -13 -13 -13 -13 -13 -13 -13 -12 -12 -11 -10 -9 -10 -10 -10 -9 -8 -7 -8 -8 -8 -8 -8 -8 -8 -8 -8 -8 -8 -8 -8 -8 -8 -8 -8 -8
-12 -12 -13 -13 -13 -14 -14 -14 -14 -14 -14 -13 -13 -13 -14 -14 -14 -14 -14 -14 -13 -13 -13 -13 -13 -13 -13 -13 -13 -13 -13 -13 -13 -13 -13 -13 -13 -13 -13 -13 -13 -12 -11 -10 -10 -10 -10 -10 -8 -8 -8 -8 -8 -8 -8 -8 -8 -8 -8 -8 -8 -8 -8 -8 -8 -8 -8 -8 -8
-12 -13 -13 -13 -13 -14 -14 -14 -14 -14 -14 -14 -14 -14 -14 -14 -14 -14 -14 -14 -14 -13 -13 -13 -13 -13 -13 -13 -13 -13 -13 -13 -13 -13 -13 -13 -13 -13 -13 -13 -13 -12 -11 -10 -10 -10 -10 -9 -8 -8 -8 -8 -8 -8 -8 -8 -8 -8 -8 -8 -8 -8 -8 -8 -8 -8 -8 -8 -8
-13 -13 -13 -13 -13 -14 -14 -14 -14 -14 -14 -14 -14 -14 -14 -14 -14 -14 -14 -14 -14 -14 -13 -13 -13 -13 -13 -13 -13 -13 -13 -13 -13 -13 -13 -13 -13 -13 -13 -13 -13 -12 -11 -10 -10 -10 -10 -9 -8 -8 -8 -8 -8 -8 -8 -8 -8 -8 -8 -8 -8 -8 -8 -8 -8 -8 -8 -8 -8
-13 -13 -13 -13 -14 -14 -14 -14 -14 -14 -14 -14 -14 -14 -14 -14 -14 -14 -14 -14 -14 -14 -14 -13 -13 -13 -13 -13 -13 -13 -13 -13 -13 -13 -13 -13 -13 -13 -13 -13 -13 -12 -11 -10 -10 -10 -10 -9 -8 -8 -8 -8 -8 -9 -9 -9 -9 -8 -8 -8 -8 -8 -8 -8 -8 -8 -8 -8 -8
-13 -13 -14 -14 -14 -14 -14 -14 -14 -14 -14 -14 -14 -14 -14 -14 -14 -14 -14 -14 -14 -14 -14 -14 -14 -13 -13 -13 -13 -13 -13 -13 -13 -13 -13 -13 -13 -13 -13 -13 -13 -12 -11 -10 -10 -10 -10 -9 -8 -8 -8 -8 -9 -9 -9 -9 -9 -9 -8 -8 -8 -8 -7 -8 -8 -8 -8 -8 -8
-13 -14 -14 -14 -14 -14 -14 -14 -14 -14 -14 -14 -14 -14 -14 -14 -14 -14 -14 -14 -14 -14 -14 -14 -14 -14 -14 -13 -13 -13 -13 -13 -13 -13 -13 -13 -13 -13 -13 -13 -13 -12 -11 -10 -10 -10 -9 -8 -8 -8 -8 -9 -9 -9 -9 -9 -9 -9 -9 -8 -8 -8 -7 -7 -8 -8 -8 -8 -8
-14 -14 -14 -14 -14 -14 -14 -14 -14 -14 -14 -14 -14 -14 -14 -14 -14 -14 -14 -14 -14 -14 -14 -14 -14 -14 -14 -14 -14 -14 -14 -14 -14 -14 -13 -13 -13 -13 -13 -13 -13 -12 -11 -11 -10 -10 -9 -9 -8 -9 -9 -9 -9 -9 -9 -9 -9 -9 -9 -8 -8 -8 -8 -8 -7 -8 -8 -8 -8
-14 -14 -14 -14 -14 -14 -14 -14 -14 -14 -14 -14 -14 -14 -14 -14 -14 -14 -14 -14 -14 -14 -14 -14 -14 -14 -14 -14 -14 -14 -14 -14 -14 -14 -13 -13 -13 -13 -13 -13 -13 -12 -11 -11 -10 -10 -9 -9 -9 -9 -9 -9 -9 -9 -9 -9 -9 -9 -9 -8 -8 -8 -8 -8 -7 -8 -8 -8 -8
-14 -14 -14 -15 -15 -15 -15 -15 -15 -15 -14 -14 -14 -14 -14 -14 -14 -14 -14 -14 -14 -14 -14 -14 -14 -14 -14 -14 -14 -14 -14 -14 -14 -14 -13 -13 -13 -13 -13 -13 -13 -12 -12 -11 -10 -10 -9 -9 -9 -9 -9 -9 -9 -9 -9 -9 -9 -9 -9 -8 -8 -8 -8 -8 -8 -8 -8 -8 -9
-14 -14 -15 -15 -15 -15 -15 -15 -15 -15 -15 -14 -14 -14 -14 -14 -14 -14 -14 -14 -14 -14 -14 -14 -14 -14 -14 -14 -14 -14 -14 -14 -14 -14 -13 -13 -13 -13 -13 -13 -13 -12 -12 -11 -10 -10 -10 -9 -9 -10 -10 -9 -9 -9 -9 -9 -9 -9 -9 -9 -9 -9 -9 -9 -8 -8 -8 -8 -8
-14 -15 -15 -15 -15 -15 -15 -15 -15 -15 -15 -15 -15 -14 -14 -14 -14 -14 -14 -14 -14 -14 -14 -14 -14 -14 -14 -14 -14 -14 -14 -14 -14 -14 -13 -13 -13 -13 -13 -13 -13 -12 -12 -11 -10 -10 -10 -10 -10 -10 -10 -10 -10 -9 -10 -10 -9 -9 -9 -9 -9 -9 -9 -9 -8 -8 -8 -8 -8
-15 -15 -15 -15 -15 -15 -15 -15 -15 -15 -15 -15 -15 -14 -14 -14 -14 -14 -14 -14 -14 -14 -14 -14 -14 -14 -14 -14 -14 -14 -14 -14 -14 -14 -13 -13 -13 -13 -13 -13 -13 -12 -12 -11 -11 -10 -10 -10 -10 -10 -10 -10 -10 -10 -10 -10 -10 -9 -9 -9 -9 -9 -9 -9 -9 -8 -8 -8 -8
-15 -15 -15 -15 -15 -15 -15 -15 -15 -15 -15 -15 -15 -14 -14 -14 -14 -14 -14 -14 -14 -14 -14 -14 -14 -14 -14 -14 -14 -14 -14 -14 -14 -14 -13 -13 -13 -13 -13 -13 -13 -12 -12 -11 -11 -10 -10 -10 -10 -10 -10 -10 -10 -10 -10 -10 -10 -10 -9 -9 -9 -9 -9 -9 -9 -9 -8 -8 -8
-15 -15 -15 -15 -15 -15 -15 -15 -15 -15 -15 -15 -14 -14 -14 -14 -14 -14 -14 -14 -14 -14 -14 -14 -14 -14 -14 -14 -14 -14 -14 -14 -14 -14 -13 -13 -13 -13 -13 -13 -13 -13 -12 -11 -11 -11 -10 -10 -10 -10 -10 -10 -10 -10 -10 -10 -10 -10 -10 -9 -9 -9 -9 -9 -9 -9 -9 -9 -9
-15 -15 -15 -15 -15 -15 -15 -15 -15 -15 -15 -14 -14 -14 -14 -14 -14 -14 -14 -14 -14 -14 -14 -14 -14 -14 -14 -14 -14 -14 -14 -14 -14 -13 -13 -13 -13 -13 -13 -13 -13 -13 -12 -12 -11 -11 -10 -10 -10 -10 -10 -10 -11 -11 -10 -10 -11 -10 -10 -10 -9 -9 -10 -10 -10 -10 -10 -10 -10
Height
1530 1529 1527 1525 1524 1522 1520 1519 1517 1515 1513 1512 1509 1508 1506 1504 1502 1501 1499 1498 1497 1495 1493 1491 1489 1488 1486 1484 1483 1482 1480 1479 1477 1476 1475 1473 1472 1471 1469 1468 1468 1466 1465 1464 1463 1462 1460 1458 1457 1455 1453 1452 1450 1449 1448 1447 1446 1445 1444 1443 1442 1440 1439 1438 1436 1435 1434 1433 1432
1529 1528 1526 1525 1523 1521 1519 1518 1516 1514 1512 1510 1508 1507 1505 1503 1502 1500 1499 1498 1496 1494 1493 1490 1489 1487 1485 1483 1482 1481 1479 1478 1476 1475 1473 1472 1471 1470 1468 1468 1466 1465 1464 1463 1462 1460 1459 1457 1455 1454 1452 1450 1449 1448 1447 1446 1445 1444 1443 1442 1440 1438 1437 1435 1434 1433 1432 1430 1429
1528 1527 1525 1524 1522 1520 1518 1516 1514 1513 1511 1509 1507 1506 1504 1503 1502 1500 1499 1497 1495 1493 1492 1490 1488 1486 1484 1483 1481 1480 1478 1477 1475 1474 1472 1471 1470 1468 1468 1467 1465 1464 1463 1463 1461 1459 1458 1456 1454 1453 1451 1449 1448 1447 1445 1444 1444 1443 1442 1440 1438 1437 1435 1433 1432 1431 1429 1428 1427
1528 1526 1524 1523 1521 1519 1518 1515 1513 1512 1510 1508 1506 1505 1503 1502 1501 1500 1498 1496 1494 1493 1491 1490 1488 1485 1483 1482 1480 1478 1477 1476 1474 1473 1471 1470 1468 1468 1467 1465 1464 1463 1462 1461 1459 1458 1456 1455 1453 1451 1450 1448 1447 1446 1444 1443 1443 1441 1440 1438 1437 1435 1433 1432 1430 1429 1428 1427 1425
1527 1525 1524 1522 1520 1518 1517 1514 1513 1511 1509 1507 1506 1504 1503 1502 1501 1499 1497 1495 1494 1492 1491 1489 1487 1485 1483 1481 1479 1478 1476 1474 1473 1471 1470 1469 1468 1466 1465 1464 1463 1462 1461 1460 1458 1456 1455 1453 1452 1450 1448 1447 1446 1445 1443 1443 1441 1440 1438 1437 1435 1433 1432 1430 1428 1427 1426 1425 1423
1526 1524 1523 1521 1519 1518 1516 1514 1512 1510 1508 1507 1505 1504 1503 1502 1500 1498 1497 1495 1493 1491 1490 1488 1486 1484 1482 1480 1478 1476 1474 1473 1471 1470 1469 1468 1466 1465 1464 1463 1462 1461 1460 1458 1456 1455 1453 1452 1450 1449 1448 1446 1445 1443 1442 1441 1440 1438 1437 1435 1434 1432 1430 1428 1427 1426 1424 1423 1422
1526 1524 1522 1520 1518 1517 1515 1513 1511 1509 1508 1506 1505 1503 1502 1501 1499 1498 1496 1494 1493 1491 1489 1487 1485 1483 1481 1479 1477 1475 1473 1471 1470 1468 1468 1467 1465 1464 1463 1462 1461 1460 1459 1457 1455 1453 1452 1451 1449 1448 1446 1445 1443 1442 1440 1439 1438 1437 1435 1434 1433 1431 1429 1427 1426 1424 1423 1421 1420
1525 1523 1522 1519 1518 1516 1514 1512 1510 1508 1507 1506 1504 1503 1502 1500 1498 1497 1495 1494 1492 1490 1488 1486 1484 1483 1480 1478 1476 1474 1472 1470 1468 1468 1466 1465 1464 1463 1462 1461 1460 1459 1457 1455 1454 1453 1451 1449 1448 1447 1445 1444 1442 1440 1439 1438 1436 1435 1434 1433 1431 1429 1427 1426 1424 1423 1421 1420 1418
1524 1522 1520 1518 1517 1515 1513 1511 1509 1508 1506 1505 1504 1503 1501 1499 1498 1497 1495 1493 1492 1490 1488 1486 1483 1481 1479 1477 1475 1473 1471 1469 1468 1467 1465 1464 1463 1463 1462 1460 1459 1458 1456 1454 1453 1451 1450 1448 1447 1445 1444 1443 1441 1439 1437 1436 1434 1433 1433 1431 1429 1428 1426 1424 1423 1421 1420 1418 1416
1523 1521 1519 1518 1516 1514 1512 1510 1509 1507 1506 1504 1503 1502 1500 1499 1498 1496 1494 1493 1491 1489 1487 1485 1483 1480 1478 1476 1474 1472 1470 1469 1467 1466 1465 1464 1463 1462 1461 1460 1458 1457 1455 1453 1452 1450 1448 1447 1446 1444 1443 1441 1440 1438 1436 1434 1433 1432 1431 1430 1428 1426 1424 1423 1421 1420 1418 1417 1415
1523 1521 1519 1517 1515 1513 1511 1509 1508 1506 1505 1504 1503 1501 1499 1498 1497 1495 1494 1492 1490 1488 1486 1484 1482 1479 1477 1475 1473 1471 1470 1468 1467 1466 1464 1463 1462 1461 1460 1459 1458 1456 1454 1452 1451 1449 1448 1446 1444 1443 1441 1440 1438 1437 1435 1433 1431 1430 1430 1428 1427 1425 1423 1421 1419 1418 1417 1415 1413
1522 1520 1518 1516 1514 1512 1510 1508 1507 1506 1504 1503 1502 1500 1499 1497 1496 1494 1493 1491 1489 1487 1485 1483 1481 1478 1476 1474 1473 1471 1469 1468 1467 1465 1464 1463 1462 1461 1460 1458 1457 1455 1453 1451 1450 1448 1447 1445 1443 1441 1440 1438 1437 1435 1433 1432 1430 1429 1428 1427 1425 1423 1422 1420 1418 1417 1415 1413 1412
1521 1519 1517 1515 1513 1512 1510 1508 1506 1505 1504 1503 1501 1499 1498 1497 1495 1494 1492 1490 1488 1486 1484 1482 1480 1478 1476 1474 1472 1470 1469 1468 1466 1465 1464 1463 1461 1460 1458 1457 1455 1453 1452 1450 1449 1448 1446 1444 1442 1441 1439 1437 1435 1434 1432 1430 1428 1428 1427 1426 1424 1422 1421 1419 1417 1416 1414 1412 1411
1520 1518 1517 1515 1513 1511 1509 1508 1506 1504 1503 1502 1500 1499 1497 1496 1494 1493 1491 1489 1487 1485 1483 1481 1479 1477 1475 1473 1472 1470 1469 1467 1466 1465 1463 1462 1461 1459 1458 1456 1454 1452 1451 1449 1448 1447 1445 1443 1441 1440 1438 1436 1434 1432 1430 1429 1428 1427 1427 1425 1423 1421 1420 1418 1416 1415 1413 1411 1410
1520 1518 1516 1514 1512 1510 1509 1507 1505 1504 1503 1501 1500 1498 1497 1495 1493 1492 1490 1488 1486 1484 1482 1480 1478 1476 1474 1473 1471 1470 1468 1467 1466 1464 1463 1461 1460 1458 1457 1455 1453 1451 1450 1448 1447 1445 1443 1442 1440 1438 1437 1434 1432 1430 1428 1427 1427 1427 1426 1424 1422 1421 1419 1417 1416 1414 1412 1410 1409
1519 1517 1515 1513 1512 1510 1508 1507 1505 1503 1502 1501 1499 1498 1496 1494 1493 1491 1489 1487 1485 1483 1482 1480 1478 1476 1473 1472 1471 1469 1468 1466 1465 1463 1462 1460 1458 1457 1455 1454 1452 1450 1448 1447 1445 1443 1442 1440 1439 1437 1435 1432 1430 1428 1427 1426 1427 1426 1425 1423 1422 1420 1418 1417 1415 1413 1412 1410 1408
1518 1516 1515 1513 1511 1509 1508 1506 1505 1503 1502 1500 1498 1497 1496 1494 1492 1490 1489 1487 1485 1483 1481 1479 1477 1475 1473 1471 1470 1468 1467 1466 1464 1463 1461 1459 1458 1456 1454 1453 1451 1449 1448 1446 1444 1442 1440 1439 1438 1436 1433 1430 1428 1428 1427 1427 1426 1425 1424 1423 1421 1419 1418 1416 1414 1413 1411 1409 1408
1518 1516 1514 1512 1511 1509 1507 1506 1504 1503 1501 1499 1498 1496 1495 1493 1492 1490 1488 1486 1484 1482 1480 1478 1476 1475 1473 1471 1469 1468 1467 1465 1463 1462 1460 1458 1457 1455 1453 1452 1450 1448 1447 1445 1443 1441 1440 1438 1437 1434 1431 1428 1428 1428 1428 1427 1426 1425 1423 1422 1420 1419 1417 1416 1414 1412 1411 1409 1407
1517 1515 1513 1512 1510 1508 1506 1505 1503 1502 1500 1499 1497 1496 1494 1493 1491 1489 1487 1485 1484 1482 1480 1478 1476 1474 1472 1470 1469 1467 1466 1464 1463 1461 1459 1458 1456 1454 1453 1451 1449 1447 1445 1444 1442 1440 1439 1438 1436 1433 1429 1428 1428 1428 1428 1426 1425 1424 1423 1421 1420 1418 1417 1415 1413 1412 1410 1408 1407
1516 1514 1513 1511 1509 1507 1506 1504 1503 1501 1500 1498 1497 1496 1494 1493 1491 1489 1487 1485 1483 1481 1479 1478 1475 1473 1472 1470 1468 1467 1465 1463 1462 1460 1458 1457 1455 1453 1452 1450 1448 1446 1444 1443 1441 1440 1438 1437 1434 1431 1428 1428 1428 1428 1427 1425 1424 1423 1422 1421 1419 1418 1416 1414 1413 1411 1410 1408 1407
1516 1514 1512 1510 1508 1507 1505 1504 1502 1501 1499 1498 1497 1495 1494 1492 1490 1488 1486 1484 1483 1481 1479 1477 1475 1473 1471 1469 1468 1466 1464 1463 1462 1460 1458 1456 1455 1453 1451 1449 1447 1445 1443 1442 1440 1439 1438 1436 1433 1429 1428 1428 1428 1428 1426 1425 1424 1423 1421 1420 1419 1417 1416 1414 1413 1411 1409 1408 1406
1515 1513 1511 1510 1508 1506 1505 1503 1502 1501 1499 1498 1497 1495 1493 1491 1489 1488 1486 1484 1483 1481 1479 1477 1475 1473 1471 1469 1467 1466 1464 1463 1461 1460 1458 1456 1454 1452 1450 1448 1447 1445 1443 1441 1439 1438 1436 1434 1431 1429 1427 1427 1427 1427 1425 1424 1423 1422 1421 1420 1418 1417 1415 1414 1412 1411 1409 1408 1406
1514 1513 1511 1509 1508 1506 1505 1503 1502 1501 1499 1498 1496 1494 1493 1491 1489 1487 1485 1483 1482 1480 1478 1476 1474 1472 1470 1469 1467 1465 1464 1463 1461 1459 1458 1456 1454 1452 1450 1448 1446 1444 1443 1441 1439 1437 1435 1433 1430 1428 1427 1427 1426 1425 1424 1423 1422 1421 1420 1419 1418 1416 1415 1413 1412 1410 1409 1408 1406
1513 1512 1510 1508 1507 1505 1504 1503 1501 1500 1499 1497 1496 1494 1492 1490 1488 1486 1485 1483 1482 1480 1478 1476 1474 1472 1470 1468 1467 1465 1464 1462 1460 1458 1457 1455 1453 1452 1450 1448 1446 1444 1442 1440 1438 1437 1435 1433 1430 1428 1427 1427 1426 1424 1423 1423 1422 1421 1420 1418 1417 1416 1414 1413 1412 1410 1409 1408 1406
1513 1511 1509 1508 1506 1505 1503 1502 1501 1499 1498 1497 1495 1493 1492 1490 1488 1486 1484 1482 1481 1479 1477 1475 1473 1472 1470 1468 1467 1465 1463 1462 1460 1458 1456 1454 1453 1451 1449 1448 1446 1444 1442 1439 1438 1437 1435 1433 1431 1429 1428 1426 1424 1423 1423 1422 1421 1420 1419 1418 1417 1416 1414 1413 1411 1410 1409 1408 1406
1512 1510 1508 1507 1505 1504 1503 1501 1500 1499 1497 1496 1494 1492 1491 1489 1487 1485 1483 1482 1480 1478 1477 1475 1473 1471 1470 1468 1466 1465 1463 1462 1460 1458 1456 1454 1452 1450 1449 1448 1446 1443 1441 1439 1438 1436 1434 1433 1431 1430 1428 1425 1423 1423 1422 1421 1421 1420 1419 1418 1417 1416 1414 1413 1411 1410 1409 1408 1406
1511 1509 1508 1506 1505 1503 1502 1501 1499 1498 1497 1495 1493 1491 1490 1488 1486 1484 1483 1481 1479 1478 1476 1474 1473 1471 1469 1468 1466 1464 1463 1461 1459 1458 1456 1454 1452 1450 1448 1447 1445 1443 1441 1439 1438 1436 1433 1432 1431 1429 1427 1424 1423 1422 1422 1421 1420 1419 1418 1418 1417 1415 1414 1413 1411 1410 1409 1408 1406
1510 1508 1507 1505 1504 1503 1501 1500 1498 1497 1496 1494 1492 1490 1488 1487 1485 1483 1482 1480 1478 1477 1475 1474 1472 1470 1469 1467 1465 1463 1462 1461 1459 1457 1455 1453 1452 1450 1448 1446 1445 1443 1441 1439 1437 1435 1433 1432 1431 1428 1426 1424 1423 1422 1422 1421 1420 1419 1418 1418 1417 1415 1414 1413 1412 1411 1409 1408 1406
1509 1508 1506 1504 1503 1502 1500 1499 1498 1496 1494 1493 1491 1489 1488 1486 1484 1483 1481 1479 1478 1476 1475 1473 1472 1470 1468 1466 1465 1463 1462 1460 1458 1457 1455 1453 1451 1450 1448 1446 1444 1442 1440 1439 1437 1434 1433 1433 1430 1428 1426 1425 1423 1422 1422 1421 1420 1420 1418 1417 1416 1415 1414 1413 1412 1411 1409 1408 1407
1509 1507 1505 1504 1502 1501 1499 1498 1497 1495 1493 1492 1490 1488 1487 1485 1483 1482 1480 1478 1477 1475 1474 1473 1471 1469 1468 1466 1464 1463 1461 1460 1458 1456 1454 1453 1451 1449 1448 1446 1444 1442 1440 1438 1436 1434 1433 1433 1430 1427 1426 1425 1423 1422 1422 1421 1421 1420 1418 1417 1416 1415 1414 1414 1413 1411 1410 1408 1407
1508 1507 1505 1503 1501 1500 1499 1498 1496 1494 1493 1491 1489 1487 1486 1484 1482 1481 1479 1478 1476 1474 1473 1472 1470 1469 1467 1466 1464 1463 1461 1459 1458 1456 1454 1452 1451 1449 1448 1446 1444 1442 1440 1438 1436 1434 1434 1433 1429 1427 1425 1425 1424 1423 1422 1422 1421 1420 1419 1417 1416 1415 1414 1414 1413 1411 1410 1409 1407
1508 1506 1504 1503 1501 1500 1498 1497 1495 1493 1492 1490 1488 1487 1485 1483 1482 1480 1478 1477 1475 1473 1472 1471 1469 1468 1466 1464 1463 1462 1460 1459 1457 1455 1454 1453 1451 1449 1448 1446 1444 1442 1440 1438 1436 1434 1434 1433 1429 1427 1426 1425 1424 1423 1423 1422 1421 1420 1419 1418 1417 1415 1414 1414 1413 1412 1410 1409 1408
1507 1505 1503 1502 1501 1499 1497 1496 1494 1492 1491 1489 1488 1486 1484 1483 1481 1479 1477 1476 1474 1473 1471 1470 1468 1467 1465 1464 1462 1461 1459 1458 1457 1455 1454 1452 1451 1449 1448 1446 1444 1442 1440 1438 1436 1434 1434 1433 1430 1428 1426 1425 1425 1424 1423 1423 1422 1421 1420 1419 1418 1416 1415 1414 1414 1413 1411 1409 1408
1506 1504 1503 1502 1500 1498 1497 1495 1493 1492 1490 1488 1487 1485 1483 1482 1480 1478 1477 1475 1474 1472 1471 1469 1468 1466 1465 1463 1462 1460 1459 1458 1456 1455 1453 1452 1451 1449 1448 1446 1444 1443 1441 1438 1436 1435 1434 1433 1430 1428 1427 1426 1425 1425 1424 1423 1422 1421 1420 1419 1418 1416 1415 1414 1414 1413 1412 1410 1409
1506 1504 1503 1501 1499 1498 1496 1494 1493 1491 1489 1488 1486 1484 1483 1481 1479 1478 1476 1474 1473 1472 1470 1468 1467 1466 1464 1463 1461 1460 1458 1457 1456 1454 1453 1452 1451 1449 1448 1446 1444 1443 1441 1439 1437 1435 1435 1434 1432 1429 1428 1427 1426 1425 1425 1424 1423 1422 1421 1419 1418 1417 1416 1415 1415 1414 1413 1411 1410
1506 1504 1502 1500 1498 1497 1495 1494 1492 1491 1489 1488 1486 1484 1482 1480 1479 1477 1476 1474 1472 1471 1469 1468 1466 1465 1463 1462 1461 1459 1458 1457 1455 1454 1453 1452 1451 1449 1448 1446 1444 1443 1441 1439 1437 1436 1436 1435 1433 1430 1428 1427 1426 1426 1425 1424 1423 1422 1421 1420 1419 1418 1417 1416 1415 1414 1414 1413 1411
1505 1503 1502 1500 1498 1497 1495 1493 1492 1490 1488 1487 1485 1483 1481 1480 1478 1477 1475 1473 1472 1470 1469 1467 1466 1464 1463 1461 1460 1459 1458 1457 1455 1454 1453 1452 1451 1449 1448 1446 1444 1443 1441 1440 1438 1437 1436 1434 1433 1432 1430 1428 1427 1427 1426 1425 1424 1423 1422 1421 1420 1419 1418 1417 1416 1414 1414 1414 1412
1504 1503 1501 1500 1498 1497 1495 1493 1492 1490 1488 1486 1484 1483 1481 1479 1478 1476 1475 1473 1472 1470 1468 1467 1466 1464 1463 1461 1459 1458 1457 1456 1455 1454 1453 1452 1451 1449 1448 1447 1445 1443 1441 1440 1438 1438 1437 1435 1434 1433 1431 1429 1428 1428 1427 1426 1425 1424 1423 1422 1421 1420 1419 1418 1417 1415 1415 1416 1414
1504 1502 1501 1499 1498 1496 1495 1493 1491 1489 1488 1486 1484 1482 1481 1479 1478 1476 1475 1473 1472 1470 1468 1467 1465 1464 1462 1461 1459 1458 1457 1456 1455 1454 1453 1452 1451 1450 1448 1447 1445 1443 1442 1441 1439 1438 1437 1436 1435 1433 1432 1430 1429 1428 1428 1427 1426 1425 1423 1423 1422 1421 1420 1419 1417 1416 1415 1416 1415
1503 1502 1501 1499 1498 1496 1494 1493 1491 1489 1488 1486 1484 1482 1480 1479 1478 1476 1475 1473 1472 1470 1468 1467 1465 1463 1462 1461 1459 1458 1457 1456 1455 1454 1453 1452 1451 1450 1448 1447 1445 1444 1443 1441 1440 1439 1438 1437 1436 1434 1433 1432 1431 1430 1429 1428 1427 1426 1424 1423 1423 1422 1421 1420 1418 1417 1416 1416 1415
1503 1502 1500 1499 1498 1496 1494 1493 1491 1489 1487 1485 1484 1482 1481 1479 1478 1476 1475 1473 1472 1470 1468 1467 1465 1463 1462 1461 1459 1458 1457 1456 1455 1454 1453 1452 1451 1450 1449 1447 1446 1444 1443 1442 1441 1440 1439 1438 1437 1436 1434 1433 1432 1431 1430 1429 1428 1427 1425 1424 1423 1423 1422 1420 1419 1418 1417 1416 1415
Wind_Speed
21 21 22 22 22 22 22 22 22 22 23 24 24 25 24 24 23 23 23 23 24 26 26 27 27 28 28 29 29 30 30 30 30 30 30 28 26 25 25 25 26 27 28 29 28 28 29 31 31 30 29 28 27 26 25 23 24 24 26 27 29 30 30 29 29 28 26 25 24
21 22 22 22 22 22 23 23 23 23 24 25 24 24 23 23 23 23 23 24 25 26 27 28 28 28 29 30 30 30 30 30 31 31 30 28 26 25 24 25 25 27 28 29 29 29 30 31 31 30 29 28 27 26 25 24 24 24 26 28 30 30 30 29 29 28 27 26 24
22 23 23 23 23 23 23 24 24 24 25 25 24 23 23 23 22 23 24 25 26 27 27 28 28 29 30 31 31 31 31 31 31 30 29 28 26 25 24 24 25 28 29 30 29 30 31 32 30 29 28 28 27 27 26 25 24 24 26 29 31 31 30 30 29 28 28 27 26
23 23 23 24 24 24 24 24 25 25 25 25 24 24 23 23 23 24 25 26 27 27 27 28 29 30 31 31 31 31 31 31 30 30 29 28 27 25 24 24 26 28 30 31 31 32 32 31 30 29 28 28 28 28 27 26 25 25 27 29 31 31 31 29 28 28 28 29 28
24 24 24 24 25 24 24 24 25 25 25 24 24 24 24 23 24 25 26 27 28 28 28 28 29 30 30 31 32 32 32 31 30 29 28 28 27 26 24 24 26 29 31 32 32 32 31 30 29 28 28 28 28 27 27 27 26 26 27 29 31 32 31 29 28 28 28 28 29
25 25 25 25 25 25 25 25 25 25 25 24 24 24 24 24 25 26 27 28 28 28 28 29 29 30 31 31 32 32 32 31 29 28 28 27 27 26 25 24 26 29 31 32 32 32 31 30 29 29 29 28 28 28 27 26 26 27 27 28 30 31 31 30 29 28 28 28 28
24 25 25 25 25 25 25 25 25 25 24 24 23 23 24 25 26 27 27 27 28 29 29 29 30 30 31 32 32 32 31 30 29 28 27 27 27 26 25 25 27 29 31 32 32 31 31 30 30 30 29 29 29 28 27 26 26 27 28 28 30 31 31 30 29 28 28 27 27
25 25 25 25 25 25 25 25 25 25 24 23 23 24 24 25 26 27 27 28 28 29 29 30 30 31 31 32 32 31 30 30 29 28 27 27 27 27 26 26 28 29 31 31 31 31 30 30 30 30 30 30 30 30 28 25 25 26 27 28 29 31 31 30 29 28 27 26 26
25 25 26 26 26 25 25 25 25 24 23 23 23 24 24 25 26 26 27 27 28 29 29 30 30 31 32 32 31 30 30 29 29 28 28 28 28 27 27 28 29 30 31 31 30 30 31 31 31 31 31 31 31 30 27 24 24 25 27 28 29 31 31 30 28 27 26 25 24
25 26 26 26 26 26 25 25 25 24 23 23 23 24 24 24 25 26 27 27 29 29 30 30 31 31 32 31 30 30 29 29 28 28 28 28 28 28 28 28 29 30 31 30 30 30 31 31 31 31 31 32 32 31 27 24 23 25 26 27 29 30 30 29 27 25 24 23 23
26 26 26 26 26 26 25 25 25 24 24 23 23 24 24 24 25 26 27 27 28 29 30 30 31 31 31 30 29 29 28 28 28 28 29 29 29 28 29 29 29 30 30 30 30 31 31 32 32 32 32 33 33 31 27 23 23 24 26 27 29 30 30 28 26 24 23 22 22
26 26 26 26 26 25 25 25 25 24 24 24 24 25 25 25 25 25 26 27 28 29 30 30 31 30 30 29 29 28 28 28 28 28 29 29 29 29 29 29 30 30 30 30 30 31 31 32 32 32 33 34 34 32 27 23 23 24 26 27 28 29 28 27 24 23 21 21 22
26 26 26 26 26 25 25 25 25 24 24 24 25 25 25 25 25 25 26 27 28 29 30 30 30 30 29 28 27 27 27 27 28 28 28 29 29 29 29 29 30 30 30 30 30 30 31 32 32 32 33 35 35 32 26 22 23 24 25 26 27 27 26 25 23 21 20 21 22
26 26 26 26 26 26 25 25 25 24 24 24 25 25 25 25 25 26 27 28 29 29 30 30 30 29 28 27 26 26 26 27 28 28 28 28 28 29 29 30 30 30 30 29 29 30 31 32 32 32 34 36 36 31 24 21 22 23 24 25 26 26 24 23 21 20 20 20 21
26 27 26 26 26 26 26 25 25 24 24 25 26 26 26 26 27 27 28 28 29 29 29 30 30 29 28 26 25 25 26 26 27 27 28 28 28 28 29 30 30 29 29 29 29 29 30 31 31 32 35 38 36 29 23 21 21 21 22 23 24 23 22 21 20 20 19 20 20
27 27 27 27 26 26 26 26 25 25 25 26 26 26 27 27 28 28 28 28 29 29 29 29 30 29 28 27 25 25 25 26 26 27 27 28 28 29 29 29 29 28 28 28 28 28 29 29 29 32 36 39 35 28 23 20 19 19 20 22 22 21 20 20 19 19 18 18 19
27 27 27 27 27 26 26 26 26 26 26 26 27 26 27 28 28 29 28 28 28 29 29 29 29 29 28 27 26 25 25 25 26 26 27 28 28 29 29 29 29 28 27 27 28 28 27 26 29 33 38 39 34 27 21 18 17 18 20 20 20 20 19 19 18 18 18 17 18
28 28 27 27 27 27 27 26 26 27 27 27 27 27 27 28 28 28 28 28 28 29 29 30 29 28 28 27 26 25 25 25 26 26 27 27 28 28 29 29 29 28 28 28 28 28 26 26 29 35 40 39 32 24 18 16 16 18 19 19 19 18 18 18 18 18 17 17 17
28 28 28 27 27 27 27 27 27 27 27 27 27 27 27 28 28 28 28 28 28 29 29 29 29 28 27 27 26 25 25 25 26 27 27 27 28 28 29 29 29 29 30 30 29 27 25 26 30 37 41 39 31 21 16 16 18 19 19 18 18 18 18 18 18 18 17 16 17
28 28 28 28 28 27 27 27 28 28 27 27 27 27 28 28 28 29 29 29 28 28 29 29 29 28 27 26 26 26 25 26 27 28 28 28 28 28 29 30 30 30 31 32 30 27 25 26 32 38 42 40 30 20 16 18 19 19 18 18 18 18 18 18 18 18 17 16 16
28 28 28 28 28 27 27 27 27 28 27 27 27 27 27 28 29 29 29 29 28 28 29 29 29 28 27 27 26 26 26 26 27 28 29 29 29 29 29 29 30 31 32 32 29 26 25 28 34 40 43 41 30 21 16 18 18 18 18 18 18 18 18 19 18 18 17 17 17
28 29 28 28 28 27 27 27 27 27 27 27 27 27 28 28 29 29 29 29 28 28 29 29 28 28 27 27 26 26 26 26 26 28 29 29 29 29 29 29 30 31 32 31 28 25 25 30 36 41 43 41 30 20 16 17 18 18 18 18 18 19 19 18 18 18 18 19 18
28 29 28 28 28 27 27 27 26 26 26 27 27 28 28 28 29 29 29 29 29 29 29 29 29 28 28 27 26 26 26 26 26 27 28 30 30 30 30 30 30 31 32 31 27 25 27 32 38 42 43 38 27 18 16 17 17 17 17 18 19 19 19 18 18 18 20 21 20
28 28 28 28 28 27 27 27 26 26 26 27 28 28 28 29 29 29 29 29 29 29 30 30 29 28 27 27 26 26 26 26 26 27 28 30 30 30 30 30 30 31 31 29 25 25 28 34 39 43 41 33 23 17 16 17 17 17 17 18 19 19 18 18 18 20 21 22 22
28 28 28 28 28 27 27 27 27 27 27 27 28 28 28 29 29 29 29 29 29 30 30 30 29 28 27 27 26 26 26 27 27 28 29 30 30 30 30 30 30 31 30 26 24 25 29 34 39 40 35 26 19 17 17 17 17 16 16 17 18 18 19 19 20 21 21 22 23
28 28 28 28 28 28 27 27 27 27 27 28 28 28 29 29 29 29 28 28 28 29 30 29 29 28 27 26 26 26 26 26 27 28 29 30 31 30 30 30 31 31 28 24 22 25 30 36 39 36 29 21 17 16 17 17 17 16 17 17 17 18 19 21 21 21 21 21 23
28 29 29 29 28 28 28 27 27 27 28 28 28 29 29 29 29 29 28 28 28 28 28 28 28 27 27 26 26 26 26 26 27 27 28 29 30 30 30 30 31 30 27 22 23 26 33 39 38 31 23 19 17 16 16 16 16 17 17 17 16 17 19 21 22 22 21 21 23
29 30 30 30 29 28 28 28 28 28 28 29 29 29 30 30 29 29 29 28 28 27 27 27 27 27 27 27 27 26 26 26 26 27 28 28 29 29 29 30 31 29 25 21 23 28 35 40 35 26 19 18 17 16 16 16 16 17 17 16 14 15 18 21 21 21 22 22 23
31 31 31 30 30 29 29 28 28 29 29 30 30 30 30 30 30 29 29 28 28 27 27 26 26 26 27 28 27 26 26 26 26 27 27 28 28 28 29 30 31 28 23 20 23 29 36 41 32 22 16 17 16 16 15 15 16 17 17 16 15 16 19 20 21 22 22 22 23
32 32 32 31 30 30 29 29 29 29 30 30 30 30 30 30 30 30 29 28 28 27 27 26 26 26 26 27 26 26 25 26 27 27 28 28 28 28 28 29 30 27 21 19 25 31 37 41 31 20 15 15 16 16 15 15 15 17 18 19 20 20 20 20 21 22 23 22 22
33 33 32 31 31 30 30 30 30 30 30 30 30 30 30 30 30 30 29 28 28 27 27 26 26 26 26 26 25 25 25 26 27 27 27 27 27 28 28 28 29 25 20 20 26 32 37 41 32 21 15 15 16 16 15 14 14 16 19 22 22 22 21 20 20 21 22 22 22
34 33 32 31 31 30 30 30 30 30 30 30 30 30 30 30 30 30 29 28 27 27 27 26 26 26 26 26 25 25 25 26 27 27 27 26 27 27 27 27 28 24 20 21 27 33 37 40 33 24 17 15 15 16 15 14 14 15 18 21 21 21 20 19 19 20 22 22 21
34 33 32 31 31 30 30 30 30 30 30 30 30 30 30 29 30 29 28 27 26 26 26 26 26 26 26 26 26 26 26 27 27 26 26 25 26 26 27 27 27 24 21 22 27 33 37 38 34 26 19 15 15 15 15 15 15 16 17 19 18 18 18 19 19 20 20 20 21
34 33 32 31 31 30 30 30 30 30 30 30 30 29 29 29 29 28 27 26 25 26 26 26 26 26 26 25 25 26 26 26 26 26 25 25 25 25 26 26 27 24 21 22 27 32 36 37 34 29 22 17 16 16 16 16 16 16 17 17 16 16 17 19 21 21 20 19 20
33 32 32 31 31 31 30 30 31 31 31 30 29 29 28 28 27 27 26 25 25 25 26 26 26 26 26 25 25 25 26 26 26 26 25 24 24 25 25 25 26 23 21 21 26 31 34 35 33 30 25 21 18 17 17 17 17 16 16 16 15 16 18 21 22 22 22 21 21
32 31 31 31 31 31 31 31 31 30 30 29 29 28 27 27 27 26 26 25 25 26 26 26 26 26 26 26 25 25 25 25 25 25 24 24 24 24 24 24 25 23 20 20 25 30 32 34 31 29 27 25 21 19 19 19 17 16 15 15 16 18 21 22 22 22 22 23 22
31 30 30 30 30 30 30 30 30 29 28 28 27 27 27 26 27 26 26 26 26 26 26 27 27 26 26 26 26 25 25 25 24 24 23 23 23 23 24 24 24 22 19 19 24 28 31 32 30 29 28 28 25 23 21 20 18 16 15 15 17 20 22 22 20 20 22 25 25
29 29 30 29 29 29 29 29 28 27 27 26 26 26 26 26 27 27 27 26 27 27 27 27 27 27 26 26 26 25 25 24 23 23 23 22 22 22 23 23 23 21 19 19 22 27 29 30 29 29 28 28 28 26 24 22 20 17 15 16 19 21 22 20 18 20 23 26 28
28 29 29 28 28 28 28 27 27 26 26 26 26 26 26 27 27 27 27 26 27 27 27 26 26 26 26 25 25 25 24 24 23 22 22 22 21 21 21 22 21 19 18 19 22 26 28 28 28 28 27 27 27 26 25 23 21 19 17 18 20 22 20 18 18 21 24 26 29
27 27 27 27 27 27 26 26 25 25 25 25 26 26 27 27 27 27 27 27 27 26 26 26 26 26 25 25 25 24 24 24 23 22 22 21 20 20 20 20 20 18 18 19 22 25 26 27 27 27 27 26 26 25 24 24 23 21 20 20 21 21 19 17 20 24 26 27 28
27 26 26 26 26 25 25 25 25 25 25 26 26 26 26 27 27 27 27 27 27 26 26 25 25 25 25 24 24 24 24 24 23 22 21 20 20 19 19 19 19 18 18 19 21 23 25 26 27 27 26 26 25 24 23 23 23 23 23 23 23 22 20 18 21 25 27 28 27
Wind_Direction
337 336 336 336 335 334 332 331 330 328 327 326 326 326 326 327 326 327 327 326 324 323 322 322 322 321 320 321 321 322 322 322 322 322 322 321 322 324 326 329 330 332 332 330 326 323 322 324 326 326 324 321 320 320 321 321 319 317 315 315 317 319 319 317 316 315 313 310 306
337 337 338 337 336 335 334 332 331 330 330 330 331 331 332 332 330 329 327 325 323 323 323 323 322 321 321 321 322 322 322 322 322 321 321 320 320 322 325 328 332 335 334 330 325 322 321 323 325 326 325 323 323 323 323 322 320 316 314 314 317 320 322 320 318 316 316 316 315
338 339 339 339 338 336 335 333 333 333 334 335 337 338 338 337 333 329 326 324 324 324 324 323 322 322 322 322 322 322 322 322 321 321 320 319 319 320 323 328 334 337 335 329 324 320 319 322 326 328 327 324 323 323 322 321 319 316 314 315 318 322 323 322 320 319 319 320 318
339 339 340 339 338 336 335 335 336 338 339 340 341 342 341 338 333 329 327 326 327 327 326 324 322 322 323 323 322 322 322 321 321 320 319 319 318 318 322 329 336 337 333 327 322 318 318 322 328 330 328 326 324 322 321 319 318 316 315 316 319 322 323 323 322 320 319 318 317
339 340 340 338 338 337 338 339 340 342 343 343 343 341 339 336 333 330 330 329 329 327 326 324 323 323 323 323 322 322 322 321 320 320 319 318 317 318 322 329 335 335 330 324 319 317 319 324 329 331 330 327 324 321 319 317 317 316 316 317 319 322 324 324 323 321 319 317 316
338 339 339 339 339 339 340 342 344 345 345 345 342 339 337 335 333 332 332 330 329 327 326 325 325 324 324 323 323 323 322 322 321 320 320 319 318 319 323 329 333 331 326 321 318 318 321 325 330 332 331 328 324 321 318 317 316 317 317 317 318 321 324 325 324 322 319 316 314
338 338 338 339 340 341 342 344 346 348 347 344 340 337 336 335 334 333 331 329 328 327 327 327 326 326 325 325 324 324 324 323 322 322 321 321 320 322 326 329 330 327 323 319 319 320 323 326 330 332 331 328 324 322 319 318 317 317 317 317 317 320 323 325 324 321 318 316 314
338 338 339 340 342 343 344 346 348 348 347 344 340 337 335 335 334 333 332 330 329 328 327 327 327 326 326 326 326 326 326 326 326 325 324 324 324 326 328 329 328 324 321 320 321 323 325 327 330 331 331 329 327 325 321 319 319 319 318 317 316 319 323 325 323 321 318 316 316
338 339 341 342 343 345 346 348 349 349 347 344 340 338 336 336 334 333 331 330 329 328 328 327 327 327 328 329 329 329 329 330 329 329 328 328 328 329 330 330 327 324 323 323 324 325 326 327 328 329 330 331 331 328 323 320 319 320 319 317 317 319 323 324 323 320 319 318 319
338 340 342 343 345 346 348 348 350 350 348 344 341 339 338 337 335 333 332 330 328 328 328 328 329 330 330 331 331 332 333 333 333 332 331 330 330 331 331 330 328 326 326 327 327 327 327 326 326 327 329 332 333 331 325 320 320 321 321 318 318 320 323 324 323 322 322 323 323
340 341 342 344 345 347 348 349 350 350 348 344 341 341 340 338 336 334 332 329 329 329 330 331 331 332 332 333 333 334 335 336 336 335 333 332 332 332 332 330 329 329 330 330 330 328 326 324 323 323 325 330 332 331 327 323 323 323 322 318 318 321 324 325 325 325 326 328 328
341 343 344 345 347 348 349 349 350 350 347 344 342 342 341 339 337 334 331 330 330 331 332 333 333 333 334 334 335 335 336 337 337 335 334 332 333 333 332 331 331 331 331 331 330 328 325 322 320 319 322 327 331 332 329 326 327 326 322 318 319 322 325 326 327 329 331 333 332
343 344 345 347 348 349 349 350 350 349 346 343 342 342 341 339 338 335 333 333 333 334 334 334 335 335 335 335 335 335 336 336 336 335 333 333 332 332 332 332 332 332 332 331 328 325 322 319 317 318 320 325 330 332 332 330 330 326 321 318 320 323 326 327 330 332 335 337 337
344 345 347 348 349 349 350 350 350 348 345 343 343 343 342 341 340 338 337 336 336 335 335 335 336 336 335 335 335 335 336 336 335 334 333 332 332 332 333 333 333 332 331 329 325 321 319 317 317 318 321 326 332 335 336 334 332 326 320 318 321 324 327 329 333 336 339 341 341
346 347 348 349 350 350 350 350 349 346 344 343 343 343 343 342 342 341 340 339 338 336 336 335 336 336 335 334 335 335 335 335 335 334 333 332 332 333 334 334 333 332 330 327 322 318 316 316 317 319 324 330 336 339 340 337 332 324 319 320 324 327 329 332 335 339 343 345 345
347 348 349 349 350 350 350 350 348 346 344 343 344 343 342 341 341 342 341 339 338 338 337 336 336 335 335 334 334 335 335 334 334 333 333 332 333 334 335 334 334 333 330 327 321 318 316 316 319 324 330 337 341 343 343 338 330 323 320 324 327 330 332 334 337 341 344 348 349
348 348 349 349 350 351 350 349 348 345 344 343 344 342 340 340 339 339 339 339 340 339 338 337 337 336 335 334 335 335 335 334 334 333 333 333 335 335 335 335 335 335 333 329 325 321 318 318 322 331 339 344 346 346 344 338 328 323 325 329 332 334 335 336 338 341 345 349 352
348 348 348 349 350 350 350 349 347 345 345 344 343 341 339 338 337 337 338 341 342 341 339 338 338 337 337 336 336 336 335 334 334 333 333 334 336 336 336 336 337 337 336 333 330 326 322 320 326 337 346 349 349 347 343 334 327 327 330 334 338 340 340 339 339 340 344 348 353
347 347 348 349 349 350 350 349 347 346 344 343 341 340 338 336 335 336 339 342 343 342 340 339 339 339 339 339 339 339 338 337 335 335 335 335 336 336 337 337 338 338 338 337 333 328 324 323 330 341 347 348 347 344 338 331 330 332 336 338 342 344 344 343 341 341 343 347 353
346 347 348 348 349 349 348 347 346 345 343 341 340 338 336 335 335 337 340 341 341 341 340 340 339 339 340 341 341 341 341 340 338 337 337 337 338 338 338 339 339 340 339 337 333 328 325 326 335 343 346 344 341 336 332 332 334 337 338 340 343 346 347 346 344 343 343 347 353
346 346 346 347 347 347 346 345 344 342 340 339 337 335 334 334 336 338 339 339 338 339 339 340 340 340 341 341 342 342 342 341 340 339 339 339 339 340 341 342 342 341 339 336 332 327 326 331 338 343 343 340 336 331 330 333 335 338 339 340 343 346 348 349 348 347 348 351 355
344 344 345 345 345 345 344 343 341 339 337 335 335 334 334 335 336 337 337 337 337 337 338 339 340 341 341 341 340 340 340 339 338 338 339 340 341 343 345 345 344 342 339 336 331 328 329 335 341 342 340 337 334 332 331 332 335 338 340 340 343 347 351 353 354 355 356 356 357
342 342 342 342 343 342 341 340 338 335 334 333 333 334 334 335 335 336 336 336 336 335 336 339 340 340 340 340 339 338 338 337 336 336 337 339 341 343 346 346 344 341 338 336 332 331 333 337 340 340 338 336 336 336 334 334 337 340 342 342 346 351 356 360 3 5 3 360 358
340 340 340 340 340 340 339 337 335 332 331 331 332 333 334 334 334 335 335 335 334 334 336 338 339 338 338 338 337 336 335 335 334 334 335 337 339 342 344 344 342 339 338 336 333 333 334 336 337 337 337 338 340 339 336 337 342 345 346 348 352 358 4 9 13 12 7 1 358
338 338 339 339 338 337 336 335 332 331 330 330 331 332 332 333 333 334 334 334 333 333 335 336 337 337 336 335 334 334 333 333 333 332 333 334 337 339 341 340 339 338 338 337 333 333 334 335 336 337 339 343 344 341 339 343 348 352 354 356 0 7 13 16 17 14 8 2 0
337 338 339 338 337 335 334 333 331 329 328 328 329 329 330 331 332 333 333 333 332 332 333 334 335 335 335 334 334 333 333 332 332 331 332 333 335 337 337 338 337 338 338 337 333 333 335 337 339 342 346 349 346 343 344 349 354 359 2 3 8 14 19 19 17 12 7 3 3
338 339 339 338 336 334 333 332 330 329 327 327 327 327 328 329 331 331 331 331 331 331 332 331 332 333 333 334 334 334 333 332 331 331 332 333 334 335 335 336 336 337 338 337 334 334 337 340 343 347 352 352 348 347 351 356 2 5 6 5 12 20 23 20 16 11 7 5 6
341 340 339 337 336 335 333 331 330 328 326 326 326 326 327 328 329 329 329 329 330 330 330 330 330 330 332 333 334 333 332 331 331 332 333 334 334 335 335 335 336 337 338 336 336 337 340 343 347 352 355 352 350 352 359 4 9 9 7 7 16 25 26 22 17 12 10 9 9
342 340 339 338 338 336 333 330 328 327 326 325 325 325 326 327 327 327 327 327 328 329 329 328 328 328 330 332 332 332 332 331 332 333 334 335 336 336 336 336 337 338 339 339 341 341 342 346 350 355 357 353 353 359 7 14 15 13 12 17 25 30 30 26 20 16 14 13 12
342 341 340 339 338 335 332 329 327 326 325 325 325 326 326 326 326 327 327 327 327 327 327 327 326 327 328 329 330 331 331 331 333 335 337 337 337 336 336 337 338 340 342 344 345 343 345 351 357 2 2 358 0 8 16 20 20 19 22 28 32 35 34 30 23 20 19 19 16
342 341 340 338 336 333 330 328 327 327 326 326 326 327 326 326 326 326 326 326 326 326 326 326 326 326 327 328 329 330 330 331 334 336 337 337 338 337 336 337 339 342 345 348 348 346 349 357 6 11 9 4 10 16 20 20 19 21 26 32 36 38 36 32 26 23 22 22 19
341 341 339 336 333 330 329 328 328 328 328 328 328 327 327 327 327 327 326 326 326 326 326 326 326 326 326 328 328 329 330 332 334 336 337 337 336 336 337 338 340 343 348 351 350 350 354 2 11 16 15 12 16 20 20 17 15 16 21 29 36 38 36 31 28 26 25 23 22
340 339 337 334 331 329 328 329 329 329 329 329 328 328 328 327 328 328 328 328 327 327 327 326 326 326 326 327 328 328 330 332 334 335 336 336 337 337 337 338 341 344 348 352 353 355 359 6 13 17 19 17 18 19 17 15 14 13 17 25 33 36 34 29 30 30 28 25 26
339 338 335 333 331 330 329 329 330 330 330 330 329 329 329 329 330 330 330 329 329 328 327 326 326 326 327 327 327 328 329 331 333 334 335 336 337 338 338 338 340 343 348 354 358 360 3 9 14 18 20 22 21 19 17 16 18 18 21 25 31 32 27 23 25 29 31 30 32
338 337 335 334 333 332 331 331 331 332 331 331 331 331 331 332 332 332 331 330 330 329 328 327 327 328 328 329 328 329 330 331 333 334 335 335 336 338 338 339 340 344 350 358 2 4 6 11 14 17 21 24 23 20 18 18 21 25 27 30 30 25 19 15 17 24 32 37 39
338 337 335 335 334 333 333 333 333 333 333 333 334 334 334 334 334 334 333 333 332 330 329 328 329 329 329 329 330 330 331 331 332 333 335 335 336 337 338 339 341 345 354 3 6 6 8 13 15 18 21 24 25 23 20 19 22 26 30 30 26 19 13 9 11 21 32 41 44
339 338 336 335 335 334 334 334 334 335 335 336 337 337 337 336 335 335 335 335 333 332 331 331 330 329 329 329 330 331 332 332 332 333 335 336 336 338 339 340 341 348 359 8 9 8 9 13 15 17 19 23 25 24 21 18 19 23 27 26 21 15 11 8 12 23 35 43 46
341 340 338 336 335 334 335 335 336 337 338 339 339 339 337 337 336 336 336 336 335 333 333 332 330 329 329 330 331 332 333 333 334 334 335 337 337 339 341 341 343 350 4 13 11 9 10 12 14 15 16 19 22 23 21 18 16 18 20 19 16 13 11 11 19 30 39 44 46
343 341 339 336 335 336 337 338 340 341 341 341 340 340 339 338 337 336 337 337 336 336 335 333 331 330 330 332 332 332 333 335 336 336 337 337 338 341 343 343 345 354 8 17 13 11 12 12 14 14 14 15 18 20 19 17 15 16 17 17 14 13 13 17 28 35 40 44 46
343 341 339 337 337 338 339 341 343 343 343 342 340 339 338 338 336 336 337 338 338 337 336 333 331 331 332 333 333 333 334 336 338 339 338 338 340 343 345 345 349 359 11 18 15 13 12 13 14 13 13 13 15 17 16 15 15 17 20 20 18 18 20 27 35 38 40 43 44
344 341 339 339 340 341 341 342 344 345 345 344 341 338 337 336 336 336 337 338 339 339 337 334 332 332 334 335 335 335 336 338 340 341 341 341 344 347 349 350 355 3 11 17 16 13 12 14 14 13 13 12 14 15 15 13 15 19 24 27 26 26 27 34 39 41 41 42 42